[Iaude] MPEC K142: 2024 KE1 [a=1.42,e=0.34,i=10.4,H=24.4]
    mpec at cfa.harvard.edu 
    mpec at cfa.harvard.edu
       
    Thu May 30 23:37:33 EDT 2024
    
    
  
M.P.E.C. 2024-K142                                 Issued 2024 May 31, 03:36 UT
     The Minor Planet Electronic Circulars contain information on unusual
         minor planets, routine data on comets and natural satellites,
         and occasional editorial announcements.  They are published
    on behalf of Division F of the International Astronomical Union by the
          Minor Planet Center, Smithsonian Astrophysical Observatory,
                          Cambridge, MA 02138, U.S.A.
			  
             Prepared using the Tamkin Foundation Computer Network
                              MPC at CFA.HARVARD.EDU
            URL https://www.minorplanetcenter.net/    ISSN 1523-6714
                                    2024 KE1                                    
Observations:
     K24K01E*1C2024 05 29.20316112 55 14.113+36 44 05.96         21.35GVEK142G96
     K24K01E 1C2024 05 29.20879612 55 17.159+36 43 05.41         21.72GVEK142G96
     K24K01E 1C2024 05 29.21442412 55 20.255+36 42 04.79         21.41GVEK142G96
     K24K01E 1C2024 05 29.22005512 55 23.178+36 41 04.34         21.19GVEK142G96
     K24K01E KC2024 05 29.26251112 55 46.178+36 33 24.07         22.2 GVEK142H01
     K24K01E  C2024 05 29.26665212 55 48.452+36 32 39.45         20.9 GVEK142H01
     K24K01E KC2024 05 29.27649512 55 53.884+36 30 52.97         21.4 GVEK142H01
     K24K01E KC2024 05 29.28683012 55 59.586+36 29 01.06         21.8 GVEK142H01
     K24K01E KC2024 05 29.32191712 56 19.194+36 22 44.04         21.69GVEK142V06
     K24K01E KC2024 05 29.33057712 56 24.032+36 21 09.65         21.78GVEK142V06
     K24K01E KC2024 05 29.33491012 56 26.448+36 20 22.45         21.63GVEK142V06
     K24K01E KB2024 05 29.97020 13 02 29.27 +34 25 43.4                ZEK142106
     K24K01E KB2024 05 29.97752 13 02 33.27 +34 24 21.7                ZEK142106
     K24K01E KB2024 05 29.98484 13 02 37.22 +34 23 00.4                ZEK142106
     K24K01E KB2024 05 29.99215 13 02 41.19 +34 21 39.0                ZEK142106
     K24K01E KC2024 05 31.11736713 12 59.46 +30 52 24.5          21.7 GVEK142H21
     K24K01E KC2024 05 31.12314613 13 02.31 +30 51 18.5          22.0 GVEK142H21
     K24K01E KC2024 05 31.12545813 13 03.45 +30 50 51.8          21.9 GVEK142H21
Observer details:
106 Crni Vrh.  Observer H. Mikuz.  0.60-m f/3.3 reflector + CMO.
G96 Mt. Lemmon Survey.  Observer T. Beuden.  Measurers T. Beuden, V. F.
    Carvajal, D. Fay, J. B. Fazekas, D. C. Fuls, A. R. Gibbs, A. D. Grauer, H.
    Groeller, J. K. Hogan, R. A. Kowalski, S. M. Larson, G. J. Leonard, D.
    Rankin, R. L. Seaman, F. C. Shelly, K. W. Wierzchos.  1.5-m reflector +
    10K CCD.
H01 Magdalena Ridge Observatory, Socorro.  Observers W. H. Ryan, E. V. Ryan.
    Measurer W. H. Ryan.  2.4-m f/8.9 Ritchey-Chretien + CCD.
H21 Astronomical Research Observatory, Westfield.  Observer R. Holmes.
    Measurers T. Linder, R. Holmes, L. Horn.  1.3-m f/4.0 astrograph + CCD.
V06 Catalina Sky Survey-Kuiper.  Observer V. F. Carvajal.  Measurers T.
    Beuden, V. F. Carvajal, D. Fay, J. B. Fazekas, D. C. Fuls, A. R. Gibbs, A.
    D. Grauer, H. Groeller, J. K. Hogan, R. A. Kowalski, S. M. Larson, G. J.
    Leonard, D. Rankin, R. L. Seaman, F. C. Shelly, K. W. Wierzchos.  1.55-m
    reflector + 1K CCD.
Orbital elements:
2024 KE1                                                 Earth MOID = 0.0645 AU
Epoch 2024 Mar. 31.0 TT = JDT 2460400.5                 MPC                     
M 351.22515              (2000.0)            P               Q                  
n   0.58340044     Peri.  109.80557     -0.96142668     +0.20822894             
a   1.4184854      Node    82.53920     -0.26584278     -0.87117089             
e   0.3355551      Incl.   10.44287     +0.07061408     -0.44463691             
P   1.69           H   24.40          G   0.15           U   8                  
Residuals in seconds of arc
240529 G96  0.0   0.6+    240529 H01  0.0   0.1-    240529 106  0.2+  0.1-
240529 G96  0.1-  0.2+    240529 H01  0.0   0.0     240529 106  0.2-  0.1+
240529 G96  0.4+  0.3-    240529 V06  0.0   0.0     240529 106  0.4-  0.3+
240529 G96  1.2-  0.5-    240529 V06  0.1+  0.0     240531 H21  0.2+  0.1+
240529 H01  0.1-  0.2-    240529 V06  0.1+  0.1+    240531 H21  0.1-  0.1+
240529 H01  0.1-  0.1-    240529 106  0.1-  0.0     240531 H21  0.2-  0.2-
Ephemeris:
2024 KE1                 a,e,i = 1.42, 0.34, 10                  q = 0.9425
Date    TT    R. A. (2000) Decl.     Delta      r    Elong.  Phase     V
2024 05 01    07 32 54.8 +63 23 29   0.2038  0.9565    69.8    98.7    24.4
...
2024 05 16    10 16 15.5 +60 48 22   0.1369  0.9933    78.7    93.6    23.4
...
2024 05 24    11 59 03.9 +49 50 22   0.1085  1.0206    91.1    82.8    22.5
...
2024 05 30    13 02 49.8 +34 20 59   0.09647 1.0439   105.7    69.2    21.8
2024 05 31    13 11 56.9 +31 15 01   0.09561 1.0480   108.4    66.6    21.8
2024 06 01    13 20 39.0 +28 03 29   0.09514 1.0521   111.2    64.0    21.7
...
2024 06 07    14 04 58.0 +08 40 00   0.1006  1.0780   126.7    49.0    21.4
...
2024 06 15    14 48 03.2 -11 33 43   0.1275  1.1149   138.8    36.8    21.7
...
2024 06 30    15 42 03.1 -29 47 37   0.2128  1.1889   140.6    32.8    22.8
A. U. Tomatic                (C) Copyright 2024 MPC           M.P.E.C. 2024-K142
    
    
More information about the Iaude
mailing list